Location: �terpigny
(49.8910°N, 2.9249°E)
Time: 08:58:44
(UTC+00:00)

Cosmos 1825 - Pass Details

Date: 24 October 2021
Orbit: 501 x 504 km, 82.5° (Epoch: 30 November)

Event Time Altitude Azimuth Distance (km) Brightness Sun altitude
Rises 19:30:02 0° 343° (NNW) 2,610 6.2 -28.0°
Reaches altitude 10° 19:32:16 10° 334° (NNW) 1,721 5.3 -28.3°
Enters shadow 19:34:28 28° 308° (NW) 984 4.1 -28.6°
